Other Surface Observations
Issued by NWS

Home | Current Version | Previous Version | Text Only | Print | Product List | Glossary On
Versions: 1 2 3 4 5 6 7 8 9 10 11 12 13 14 15 16 17 18 19 20 21 22 23 24 25 26 27 28 29 30 31 32 33 34 35 36 37 38 39 40 41 42 43 44 45 46 47 48 49 50
000
SXUS52 KTAE 150418
OSOTAE
OSOTAE
North Florida/South Alabama/Southwest Georgia Weather Roundup
National Weather Service Tallahassee Florida
1200 AM EDT MON SEP 15 2014

Note: "fair" indicates few or no clouds below 12,000 feet with no
significant weather and/or obstructions to visibility.

!FLZ017-115-028-034-025-150500
...North Florida...

CITY           SKY/WX    TMP DP  RH WIND       PRES   REMARKS
TALLAHASSEE    CLOUDY    80  74  81 CALM      30.12F
APALACHICOLA   PTCLDY    85  73  67 S8        30.11S HX  91
PERRY          PTCLDY    75  73  94 E5        30.14S
CROSS CITY       N/A    N/A N/A N/A MISG      30.15R
HOMERVILLE     MOCLDY    81  75  83 CALM      30.16S
JACKSONVILLE   MOCLDY    78  75  90 SE3       30.15S
$$

!FLZ112-006-005-002-011-150500
...Florida Panhandle...

CITY           SKY/WX    TMP DP  RH WIND       PRES   REMARKS
MARIANNA       PTCLDY    75  75 100 CALM      30.12F
BONIFAY        NOT AVBL
PANAMA CITY NW FAIR      76  73  91 NE5       30.11S
TYNDALL AFB    PTCLDY    76  76  99 NE6       30.11S
TYND DRONE APT NOT AVBL
DE FUNIAK SPR  FAIR      75  70  86 CALM      30.12F
EGLIN AFB      MOCLDY    78  74  87 E2        30.10F
DESTIN         MOCLDY    80  77  90 CALM      30.10F
HURLBURT       MOCLDY    78  73  84 CALM      30.09F
CRESTVIEW      MOCLDY    75  72  90 CALM      30.13F
PENSACOLA      MOCLDY    80  74  81 E5        30.10S
$$

!ALZ063-066-150500
...South Alabama...

CITY           SKY/WX    TMP DP  RH WIND       PRES   REMARKS
DOTHAN         PTCLDY    76  72  87 S3        30.17S
OZARK CAIRNS   CLEAR     76  72  86 SW3       30.14R
FT RUCKER HELI CLEAR     76  72  87 MISG      30.13S
RUCKER HELI 3  FAIR      78  72  81 S5        30.16S
RUCKER HELI 2  MOCLDY    76  72  87 CALM      30.14S
FLORALA APT    PTCLDY    76  72  87 CALM      30.14F
ANDALUSIA      CLEAR     80  72  76 CALM      30.13S
TROY           MOCLDY    78  72  81 CALM      30.14R
EUFALA         RAIN      73  72  94 NE3       30.14F FOG
MOBILE         PTCLDY    76  76 100 CALM      30.11F
$$

!GAZ120>161-150500
...Southwest and South Central Georgia...

CITY           SKY/WX    TMP DP  RH WIND       PRES   REMARKS
THOMASVILLE      N/A     77  77 100 CALM      30.14F
BAINBRIDGE     PTCLDY    79  77  94 CALM      30.14S
MOODY AFB      MOCLDY    77  74  91 SE5       30.15S
VALDOSTA       CLOUDY    77  75  93 S3        30.14F
MOULTRIE       PTCLDY    75  73  94 CALM      30.15F
BLAKELY        CLEAR     77  72  83 CALM        N/A
ALBANY         MOCLDY    76  71  85 CALM      30.17R
TIFTON         MOCLDY    74  73  97 E5        30.15S
FITZGERALD     MOCLDY    76  73  91 E6        30.18F
CORDELE        FAIR      76  72  89 E7        30.17F
AMERICUS       FAIR      72  72 100 NE5       30.19S
$$

!GMZ750-755-770-775-150500
...Coastal and Buoy Obs...

STATION/POSITION TIME  TEMP    WIND        PRES    VSBY  WAVE
                       AIR SEA DIR/SP/G                  HT/PER
                 (UTC) (F)     (DEG/KT/KT) (MB)    (MI)  (FT/S)
KEATON BEACH     0400   84     180/ 10/ 12 1020.4R
CEDAR KEY        0357   83     180/  7/  8 1020.9S
C TOWER          0400   83     160/ 13/ 15 1019.4F
APALACHICOLA BUO 0400   83 86  170/ 12/ 14 1019.5S         4/ 6
PANAMA CITY BUOY 0259   84 87  140/ 12/ 14 1018.6          3/ 6
MOBILE BUOY      0300   84 86  120/ 12/ 14 1019.1R         3/ 7
ORANGE BCH AL BU 0400   85 86  120/ 10/ 12 1019.0S         3/ 6
$$



USA.gov is the U.S. government's official web portal to all federal, state and local government web resources and services.